sat.trackr.live / text

‹ back to catalog

ONEWEB-0567

NORAD 55147 · 2023-004H

PAYLOAD ACTIVE UNKNOWN

§ Identity

Operator
Country
UK
Launch date
2023-01-10
Launch site
AFETR
Launch vehicle
Mass (kg)
RCS (m²)

Purposes: comms

External: N2YO · Heavens-Above · Gunter

§ Orbital elements

Epoch: 2026-05-25T01:41:25.564128Z

Period
109.20 min
Inclination
87.9160°
Eccentricity
0.0001489
Mean motion
13.18685163 rev/d
Perigee alt
1,188.6 km
Apogee alt
1,190.9 km
Semi-major
7,567.9 km
B*
-7.3277e-5
RAAN
340.0732°
Arg perigee
95.1675°
Mean anomaly
264.9627°
Rev number
16,665

§ Raw data

ONEWEB-05671 55147U 23004H   26145.07043477 -.00000016  00000+0 -73277-4 0  99992 55147  87.9160 340.0732 0001489  95.1675 264.9627 13.18685163166651

JSON: /api/v1/satellites/55147 · /tle

For live sub-satellite position, see the globe view (requires WebGL).

§ Visibility from observer

Set your observer location to see the next 7 days of passes ≥ 10°. The values pass through the URL so the page stays shareable.

No JS? Fill the form by hand. The geolocation button needs JavaScript.